Beaufort MCAS, SC

10:22 PM EDT on July 21, 2017 (GMT -0400)
Beaufort Marine Corps Air Station

Weather History for KNBC - December, 2014

Change the Weather History Date:

Sunday, December 28, 2014

  Actual Average Record
Temperature  
Mean Temperature 64 °F -  
Max Temperature 75 °F 61 °F 79 °F (1971)
Min Temperature 52 °F 42 °F 26 °F (2010)
Degree Days  
Heating Degree Days 2    
Growing Degree Days 14 (Base 50)    
Moisture  
Dew Point 57 °F    
Average Humidity 85    
Maximum Humidity 97    
Minimum Humidity 69    
Precipitation  
Precipitation 0.00 in - - ()
Sea Level Pressure  
Sea Level Pressure 30.11 in    
Wind  
Wind Speed 2 mph (SE)    
Max Wind Speed 8 mph    
Max Gust Speed -    
Visibility 10 miles    
Events      
Averages and records for this station are not official NWS values.
T = Trace of Precipitation, MM = Missing Value Source: NWS Daily Summary

Daily Weather History Graph

Daily Weather History Graph

Search for Another Location

Airport or City:

Trip Planner

Search our weather history database for the weather conditions in past years. The results will help you decide how hot, cold, wet, or windy it might be!

Date:

Astronomy

Dec. 28, 2014 Rise Set
Actual Time 7:23 AM EST 5:25 PM EST
Civil Twilight 6:56 AM EST 5:52 PM EST
Nautical Twilight 6:25 AM EST 6:23 PM EST
Astronomical Twilight 5:55 AM EST 6:53 PM EST
Moon 12:08 PM EST (12/28) No Moon Set
Length of Visible Light 10h 56m
Length of Day
10h 02m
Waxing Crescent, 49% of the Moon is Illuminated
Dec 28
Waxing Crescent
Dec 28
First Quarter
Jan 4
Full
Jan 13
Last Quarter
Jan 20
New

Hourly Weather History & Observations

Time (EST) Temp. Dew Point Humidity Pressure Visibility Wind Dir Wind Speed Gust Speed Precip Events Conditions
12:56 AM 52.0 °F 48.9 °F 89% 30.20 in 10.0 mi Calm Calm - N/A   Clear
1:56 AM 52.0 °F 48.9 °F 89% 30.19 in 10.0 mi Calm Calm - N/A   Partly Cloudy
2:56 AM 54.0 °F 51.1 °F 90% 30.15 in 10.0 mi Calm Calm - N/A   Overcast
3:56 AM 54.0 °F 51.1 °F 90% 30.13 in 10.0 mi Calm Calm - N/A   Clear
4:56 AM 54.0 °F 51.1 °F 90% 30.12 in 10.0 mi Calm Calm - N/A   Clear
5:56 AM 53.1 °F 50.0 °F 89% 30.13 in 10.0 mi Calm Calm - N/A   Clear
6:56 AM 53.1 °F 50.0 °F 89% 30.15 in 10.0 mi Calm Calm - N/A   Scattered Clouds
7:56 AM 55.0 °F 53.1 °F 93% 30.16 in 10.0 mi Calm Calm - N/A   Overcast
8:56 AM 57.9 °F 54.0 °F 87% 30.17 in 10.0 mi North 4.6 mph - N/A   Overcast
9:03 AM 57.9 °F 54.0 °F 87% 30.16 in 10.0 mi North 4.6 mph - N/A   Overcast
9:28 AM 60.1 °F 55.0 °F 83% 30.16 in 10.0 mi North 3.5 mph - N/A   Mostly Cloudy
9:35 AM 61.0 °F 55.0 °F 81% 30.16 in 10.0 mi North 3.5 mph - N/A   Scattered Clouds
9:56 AM 63.0 °F 55.9 °F 78% 30.16 in 10.0 mi Calm Calm - N/A   Mostly Cloudy
10:51 AM 62.6 °F 57.2 °F 82% 30.14 in 10.0 mi ESE 3.5 mph - N/A   Overcast
10:56 AM 64.0 °F 57.9 °F 80% 30.14 in 10.0 mi Calm Calm - N/A   Overcast
11:56 AM 66.0 °F 60.1 °F 81% 30.11 in 10.0 mi SE 4.6 mph - N/A   Overcast
12:31 PM 71.1 °F 63.0 °F 75% 30.08 in 10.0 mi SE 3.5 mph - N/A   Mostly Cloudy
12:42 PM 71.1 °F 63.0 °F 75% 30.07 in 10.0 mi SSE 3.5 mph - N/A   Scattered Clouds
12:56 PM 72.0 °F 63.0 °F 73% 30.07 in 10.0 mi Calm Calm - N/A   Clear
1:56 PM 75.0 °F 64.0 °F 69% 30.04 in 10.0 mi SSW 6.9 mph - N/A   Clear
2:56 PM 73.0 °F 64.0 °F 73% 30.04 in 10.0 mi Variable 3.5 mph - N/A   Clear
3:56 PM 70.0 °F 63.0 °F 78% 30.05 in 10.0 mi SSE 8.1 mph - N/A   Partly Cloudy
4:56 PM 66.9 °F 62.1 °F 84% 30.05 in 10.0 mi SSE 4.6 mph - N/A   Clear
5:56 PM 64.9 °F 62.1 °F 90% 30.06 in 10.0 mi SSE 3.5 mph - N/A   Clear
6:56 PM 64.0 °F 61.0 °F 90% 30.07 in 10.0 mi SSE 3.5 mph - N/A   Partly Cloudy
7:56 PM 62.1 °F 60.1 °F 93% 30.08 in 10.0 mi Calm Calm - N/A   Clear
8:56 PM 61.0 °F 60.1 °F 97% 30.07 in 9.0 mi SSE 3.5 mph - N/A   Mostly Cloudy
9:56 PM 62.1 °F 60.1 °F 93% 30.08 in 9.0 mi SSE 3.5 mph - N/A   Mostly Cloudy
10:56 PM 60.1 °F 59.0 °F 96% 30.08 in 6.0 mi Calm Calm - N/A   Mostly Cloudy
11:56 PM 60.1 °F 59.0 °F 96% 30.06 in 6.0 mi South 3.5 mph - N/A   Partly Cloudy